Weather History for Richmond, KY

Change the Weather History Date:

Thursday, February 21, 2013

  Actual Average (KLOZ) Record (KLOZ)
Temperature  
Mean Temperature 28 °F 41 °F  
Max Temperature 39 °F 51 °F 70 °F (1980)
Min Temperature 17 °F 31 °F 3 °F (1963)
Degree Days  
Heating Degree Days 37 24  
Month to date heating degree days 551  
Since 1 July heating degree days 3114  
Cooling Degree Days 0 0  
Month to date cooling degree days 0  
Year to date cooling degree days 0  
Moisture  
Dew Point 17 °F    
Average Humidity 62    
Maximum Humidity 87    
Minimum Humidity 39    
Precipitation  
Precipitation 0.00 in 0.14 in 1.76 in (1989)
Month to date precipitation 2.75  
Year to date precipitation 6.29  
Sea Level Pressure  
Sea Level Pressure 30.18 in    
Wind  
Wind Speed 6 mph (ENE)    
Max Wind Speed 15 mph    
Max Gust Speed 18 mph    
Visibility 10 miles    
Events      
T = Trace of Precipitation, MM = Missing Value Source: NWS Daily Summary

Daily Weather History Graph

Daily Weather History Graph

Search for Another Location

Airport:

Trip Planner

Search our weather history database for the weather conditions in past years. The results will help you decide how hot, cold, wet, or windy it might be!

Date:

Astronomy

Feb. 21, 2013 Rise Set
Actual Time 7:19 AM EST 6:23 PM EST
Civil Twilight 6:52 AM EST 6:49 PM EST
Nautical Twilight 6:22 AM EST 7:20 PM EST
Astronomical Twilight 5:51 AM EST 7:50 PM EST
Moon 2:40 PM EST (2/21) 4:19 AM EST (2/21)
Length of Visible Light 11h 57m
Length of Day
11h 04m
Waxing Gibbous, 83% of the Moon is Illuminated
Feb 21
Waxing Gibbous
Feb 25
Full
Mar 4
Last Quarter
Mar 11
New
Mar 19
First Quarter

Hourly Weather History & Observations

Time (EST) Temp. Windchill Dew Point Humidity Pressure Visibility Wind Dir Wind Speed Gust Speed Precip Events Conditions
12:15 AM 23.0 °F 15.8 °F 14.0 °F 68% 30.24 in 10.0 mi North 5.8 mph - N/A   Clear
12:35 AM 23.0 °F 18.4 °F 14.0 °F 68% 30.25 in 10.0 mi North 3.5 mph - N/A   Clear
12:55 AM 23.0 °F 18.4 °F 14.0 °F 68% 30.25 in 10.0 mi NNE 3.5 mph - N/A   Clear
1:15 AM 23.0 °F 18.4 °F 14.0 °F 68% 30.26 in 10.0 mi North 3.5 mph - N/A   Clear
1:35 AM 23.0 °F 18.4 °F 14.0 °F 68% 30.26 in 10.0 mi North 3.5 mph - N/A   Clear
1:55 AM 23.0 °F 18.4 °F 14.0 °F 68% 30.25 in 10.0 mi NNE 3.5 mph - N/A   Clear
2:15 AM 21.2 °F 16.4 °F 14.0 °F 74% 30.27 in 10.0 mi North 3.5 mph - N/A   Clear
2:35 AM 21.2 °F - 14.0 °F 74% 30.27 in 10.0 mi Calm Calm - N/A   Clear
2:55 AM 21.2 °F 14.9 °F 14.0 °F 74% 30.25 in 10.0 mi NNE 4.6 mph - N/A   Clear
3:15 AM 21.2 °F 16.4 °F 14.0 °F 74% 30.26 in 10.0 mi NE 3.5 mph - N/A   Clear
3:35 AM 21.2 °F 14.9 °F 14.0 °F 74% 30.25 in 10.0 mi NE 4.6 mph - N/A   Clear
4:15 AM 19.4 °F 12.8 °F 14.0 °F 80% 30.24 in 10.0 mi NE 4.6 mph - N/A   Clear
4:35 AM 19.4 °F - 14.0 °F 80% 30.25 in 10.0 mi Calm Calm - N/A   Clear
4:55 AM 19.4 °F - 14.0 °F 80% 30.25 in 10.0 mi Calm Calm - N/A   Clear
5:15 AM 19.4 °F - 14.0 °F 80% 30.25 in 10.0 mi Calm Calm - N/A   Clear
5:35 AM 19.4 °F - 14.0 °F 80% 30.26 in 10.0 mi Calm Calm - N/A   Clear
5:55 AM 19.4 °F 14.3 °F 14.0 °F 80% 30.27 in 10.0 mi ENE 3.5 mph - N/A   Clear
6:15 AM 17.6 °F 10.7 °F 14.0 °F 86% 30.27 in 10.0 mi NE 4.6 mph - N/A   Clear
6:35 AM 19.4 °F 11.5 °F 14.0 °F 80% 30.26 in 10.0 mi ENE 5.8 mph - N/A   Clear
7:15 AM 19.4 °F 14.3 °F 14.0 °F 80% 30.28 in 10.0 mi ENE 3.5 mph - N/A   Clear
7:35 AM 17.6 °F 10.7 °F 14.0 °F 86% 30.28 in 10.0 mi ENE 4.6 mph - N/A   Clear
7:55 AM 19.4 °F 11.5 °F 14.0 °F 80% 30.28 in 10.0 mi NE 5.8 mph - N/A   Clear
8:15 AM 19.4 °F 12.8 °F 14.0 °F 80% 30.29 in 10.0 mi ENE 4.6 mph - N/A   Clear
8:35 AM 21.2 °F 12.6 °F 15.8 °F 80% 30.29 in 10.0 mi East 6.9 mph - N/A   Clear
8:55 AM 23.0 °F 13.9 °F 15.8 °F 74% 30.30 in 10.0 mi East 8.1 mph - N/A   Clear
9:15 AM 23.0 °F 13.9 °F 15.8 °F 74% 30.29 in 10.0 mi East 8.1 mph - N/A   Clear
9:35 AM 24.8 °F 15.3 °F 15.8 °F 69% 30.29 in 10.0 mi East 9.2 mph - N/A   Clear
9:55 AM 26.6 °F 16.8 °F 15.8 °F 64% 30.28 in 10.0 mi ENE 10.4 mph - N/A   Clear
10:15 AM 26.6 °F 16.2 °F 17.6 °F 69% 30.27 in 10.0 mi ENE 11.5 mph - N/A   Clear
10:35 AM 28.4 °F 19.1 °F 15.8 °F 59% 30.26 in 10.0 mi ENE 10.4 mph - N/A   Clear
10:55 AM 28.4 °F 18.5 °F 15.8 °F 59% 30.25 in 10.0 mi East 11.5 mph - N/A   Clear
11:15 AM 30.2 °F 20.8 °F 15.8 °F 55% 30.24 in 10.0 mi NE 11.5 mph 16.1 mph N/A   Clear
11:35 AM 32.0 °F 23.0 °F 15.8 °F 51% 30.23 in 10.0 mi ENE 11.5 mph - N/A   Clear
11:55 AM 32.0 °F 24.2 °F 15.8 °F 51% 30.24 in 10.0 mi NE 9.2 mph - N/A   Clear
12:15 PM 33.8 °F 26.4 °F 17.6 °F 52% 30.24 in 10.0 mi ENE 9.2 mph - N/A   Clear
12:35 PM 35.6 °F 29.9 °F 17.6 °F 48% 30.22 in 10.0 mi East 6.9 mph - N/A   Clear
12:55 PM 35.6 °F 28.6 °F 15.8 °F 44% 30.19 in 10.0 mi East 9.2 mph - N/A   Clear
1:15 PM 37.4 °F 30.3 °F 15.8 °F 41% 30.18 in 10.0 mi ENE 10.4 mph - N/A   Clear
1:35 PM 37.4 °F 32.1 °F 15.8 °F 41% 30.17 in 10.0 mi East 6.9 mph 16.1 mph N/A   Clear
1:55 PM 39.2 °F 33.6 °F 15.8 °F 39% 30.18 in 10.0 mi East 8.1 mph - N/A   Clear
2:15 PM 39.2 °F 32.5 °F 15.8 °F 39% 30.15 in 10.0 mi ENE 10.4 mph - N/A   Clear
2:35 PM 39.2 °F 32.0 °F 15.8 °F 39% 30.15 in 10.0 mi ENE 11.5 mph - N/A   Clear
2:55 PM 39.2 °F 33.0 °F 15.8 °F 39% 30.13 in 10.0 mi ENE 9.2 mph - N/A   Clear
3:15 PM 39.2 °F 33.0 °F 15.8 °F 39% 30.13 in 10.0 mi East 9.2 mph 17.3 mph N/A   Clear
3:35 PM 39.2 °F 33.0 °F 15.8 °F 39% 30.11 in 10.0 mi East 9.2 mph 16.1 mph N/A   Clear
3:55 PM 39.2 °F 31.6 °F 15.8 °F 39% 30.10 in 10.0 mi East 12.7 mph 18.4 mph N/A   Clear
4:15 PM 39.2 °F 30.8 °F 15.8 °F 39% 30.08 in 10.0 mi East 15.0 mph - N/A   Clear
4:35 PM 39.2 °F 32.0 °F 15.8 °F 39% 30.08 in 10.0 mi East 11.5 mph - N/A   Clear
4:55 PM 39.2 °F 32.5 °F 15.8 °F 39% 30.09 in 10.0 mi East 10.4 mph - N/A   Clear
5:15 PM 39.2 °F 31.6 °F 15.8 °F 39% 30.08 in 10.0 mi East 12.7 mph 16.1 mph N/A   Clear
5:35 PM 39.2 °F 33.0 °F 17.6 °F 42% 30.07 in 10.0 mi East 9.2 mph - N/A   Scattered Clouds
5:55 PM 39.2 °F 33.0 °F 17.6 °F 42% 30.08 in 10.0 mi East 9.2 mph - N/A   Scattered Clouds
6:15 PM 39.2 °F 33.6 °F 17.6 °F 42% 30.08 in 10.0 mi East 8.1 mph - N/A   Overcast
6:35 PM 39.2 °F 32.5 °F 17.6 °F 42% 30.07 in 10.0 mi East 10.4 mph - N/A   Overcast
6:55 PM 39.2 °F 32.5 °F 17.6 °F 42% 30.06 in 10.0 mi ENE 10.4 mph - N/A   Mostly Cloudy
7:15 PM 39.2 °F 32.5 °F 17.6 °F 42% 30.08 in 10.0 mi NE 10.4 mph - N/A   Mostly Cloudy
7:35 PM 39.2 °F 33.6 °F 15.8 °F 39% 30.09 in 10.0 mi ENE 8.1 mph - N/A   Overcast
7:55 PM 37.4 °F 32.1 °F 15.8 °F 41% 30.13 in 10.0 mi NE 6.9 mph - N/A   Overcast
8:15 PM 37.4 °F 32.1 °F 17.6 °F 45% 30.11 in 10.0 mi NE 6.9 mph - N/A   Overcast
8:35 PM 35.6 °F 29.9 °F 19.4 °F 52% 30.11 in 10.0 mi ENE 6.9 mph - N/A   Overcast
8:55 PM 35.6 °F 29.2 °F 21.2 °F 56% 30.10 in 10.0 mi ENE 8.1 mph - N/A   Overcast
9:15 PM 33.8 °F 27.7 °F 23.0 °F 65% 30.10 in 7.0 mi ENE 6.9 mph - N/A   Overcast
9:35 PM 33.8 °F 26.4 °F 26.6 °F 75% 30.09 in 7.0 mi East 9.2 mph - N/A   Overcast
9:55 PM 32.0 °F 26.4 °F 26.6 °F 80% 30.10 in 5.0 mi ENE 5.8 mph - N/A   Overcast
10:15 PM 32.0 °F 24.2 °F 28.4 °F 87% 30.08 in 5.0 mi East 9.2 mph - N/A   Overcast
10:35 PM 32.0 °F 23.6 °F 28.4 °F 87% 30.05 in 10.0 mi East 10.4 mph - N/A   Overcast
10:55 PM 32.0 °F 23.0 °F 28.4 °F 87% 30.04 in 10.0 mi East 11.5 mph - N/A   Overcast
11:15 PM 32.0 °F 24.2 °F 28.4 °F 87% 30.05 in 10.0 mi ESE 9.2 mph - N/A   Overcast
11:35 PM 32.0 °F 28.7 °F 28.4 °F 87% 30.10 in 10.0 mi SE 3.5 mph - N/A   Overcast
11:55 PM 32.0 °F 24.8 °F 28.4 °F 87% 30.04 in 4.0 mi ESE 8.1 mph - N/A   Overcast